Regional Weather Roundup
Issued by NWS

Home | Current Version | Previous Version | Text Only | Print | Product List | Glossary Off
Versions: 1 2 3 4 5 6 7 8 9 10 11 12 13 14 15 16 17 18 19 20 21 22 23 24 25 26 27 28 29 30 31 32 33 34 35 36 37 38 39 40 41 42 43 44 45 46 47 48 49 50

000
ASUS45 KBOU 302210
RWRCO

WEATHER ROUNDUP FOR COLORADO
NATIONAL WEATHER SERVICE PUEBLO CO
400 PM MDT THU JUL 30 2015

NOTE: "FAIR" INDICATES FEW OR NO CLOUDS BELOW 12000 FEET WITH NO
SIGNIFICANT WEATHER AND/OR OBSTRUCTIONS TO VISIBILITY.

COZ001>005-013-030-031-302300-
...NORTHWEST COLORADO...

CITY           SKY/WX    TMP DP  RH WIND       PRES   REMARKS
CRAIG          SUNNY     91  21   8 N7        30.34F
HAYDEN         SUNNY     84  23  10 CALM      30.37F
MEEKER         SUNNY     89  18   7 W9        30.34F
MOUNT WERNER   NOT AVBL
STEAMBOAT SPGS FAIR      84  16   8 SE3       30.39F
WALDEN         FAIR      77  18  10 NE3       30.49F
$$

COZ006>008-011-302300-
...WEST CENTRAL VALLEYS...

CITY           SKY/WX    TMP DP  RH WIND       PRES   REMARKS
GRAND JUNCTION SUNNY     92  27   9 W12       30.20F
MONTROSE       SUNNY     91  30  11 W15       30.28F
EAGLE          SUNNY     88  27  11 NW6       30.35F
RIFLE          SUNNY     93  10   4 NE3       30.25F
DELTA          NOT AVBL
NUCLA          FAIR      90  32  12 CALM      30.31F
$$

COZ017>023-064>068-302300-
...SOUTHWEST COLORADO...

CITY           SKY/WX    TMP DP  RH WIND       PRES   REMARKS
DURANGO        PTSUNNY   82  45  27 CALM      30.34F
CORTEZ         PTSUNNY   81  47  30 E22G30    30.30F
PAGOSA SPRINGS FAIR      76  40  27 S15       30.44S
TELLURIDE      PTSUNNY   77  29  17 N6        30.55S
WOLF CREEK PAS NOT AVBL
$$

COZ009-010-012-014-032>034-037-058>063-302300-
...CENTRAL COLORADO...

CITY           SKY/WX    TMP DP  RH WIND       PRES   REMARKS
ASPEN          SUNNY     82  27  13 NW8       30.43F
BUENA VISTA    FAIR      80  30  16 NE6       30.44F
COPPER MTN     MOSUNNY   64  18  16 SW7G20    30.80F
BERTHOUD PASS  PTSUNNY   50  41  71 MISG      30.86F
COTTONWOOD PAS PTSUNNY   79  21  11 CALM      30.62S
GUNNISON       MOSUNNY   81  36  19 SW9       30.43F
KREMMLING      SUNNY     82   1   4 CALM      30.42F
LEADVILLE      MOSUNNY   72  21  14 W8        30.59F
MONARCH PASS   MOSUNNY   61  32  33 NE10      30.88F
SALIDA         FAIR      85  39  19 SE13G21   30.47F
NIWOT RIDGE    NOT AVBL
SUNLIGHT       SUNNY     68  27  21 N5        30.73F
WILKERSON PASS PTSUNNY   63  34  34 NE7       30.77F
$$

COZ069>075-302300-
...SAN LUIS VALLEY/SANGRE DE CRISTO MOUNTAINS...

CITY           SKY/WX    TMP DP  RH WIND       PRES   REMARKS
ALAMOSA        LGT RAIN  67  57  70 E13       30.43F
LA VETA PASS   PTSUNNY   59  45  58 MISG      30.66F
SAGUACHE       MOSUNNY   81  41  24 S5        30.43F
$$

COZ035-036-038>040-302300-
...NORTHERN COLORADO FRONT RANGE...

CITY           SKY/WX    TMP DP  RH WIND       PRES   REMARKS
DENVER INTL AP MOSUNNY   90  39  16 NE12      30.28F
DMNS CITY PARK NOT AVBL
AURORA         NOT AVBL
FRONT RANGE AP MOSUNNY   88  37  16 NE3       30.30F
ERIE MUNI ARPT FAIR      90  26  10 N3        30.27F
BOULDER MUN AP FAIR      88  34  14 NE3       30.29F
CENTENNIAL     MOSUNNY   88  38  17 NW8       30.32F
BROOMFIELD     MOSUNNY   90  34  13 N7        30.32F
LOVELAND       SUNNY     88  46  23 E12       30.25F
LONGMONT       FAIR      92  36  14 N9        30.28F
$$

COZ041-046-047-076>085-087-088-302300-
...PIKES PEAK/PALMER DIVIDE AND SOUTHERN FOOTHILLS...

CITY           SKY/WX    TMP DP  RH WIND       PRES   REMARKS
COLO. SPRINGS  PTSUNNY   79  51  37 E16       30.36F
A. F. ACADEMY  NOT AVBL
ELLICOTT       FAIR     N/A N/A N/A N13       30.36S
FALCON         CLOUDY    71  49  45 E12       30.43F
FORT CARSON    MOSUNNY   84  50  30 NE7       30.32F
LIMON          MOSUNNY   84  52  33 S13       30.30F
MONUMENT HILL  PTSUNNY   79  43  27 CALM      30.43S
TRINIDAD       MOSUNNY   81  53  37 SE13G21   30.31F
$$

COZ042>045-048>051-090-091-302300-
...NORTHEAST COLORADO...

CITY           SKY/WX    TMP DP  RH WIND       PRES   REMARKS
GREELEY ARPT   SUNNY     90  43  19 NE6       30.25F
AKRON          CLOUDY    85  55  35 NE9       30.25F
BURLINGTON     SUNNY     87  54  32 S12G21    30.25F
WRAY           FAIR      94  50  22 S8G21     30.21F
STERLING       NOT AVBL
HOLYOKE        NOT AVBL
FORT MORGAN    FAIR      91  49  23 E5        30.24F
$$

COZ086-089-092>099-302300-
...SOUTHEAST COLORADO...

CITY           SKY/WX    TMP DP  RH WIND       PRES   REMARKS
PUEBLO         MOSUNNY   94  49  21 SE18      30.22F
LA JUNTA       SUNNY     90  51  26 S18G25    30.23F
LAMAR          PTSUNNY   84  64  50 SE12      30.22F
SPRINGFIELD      N/A     76  64  66 SE14      30.29F
$$



USA.gov is the U.S. government's official web portal to all federal, state and local government web resources and services.